Starlink 32904

operational
NORAD ID: 63198 Int'l Des: 2025-048 Owner: SPXS Country: US Constellation: starlink
LEOCIRCULAR

About Starlink 32904

Description loading...

Live Position

Loading 3D Globe...

Upcoming Passes

Altitude History

Altitude vs Time

uPlot chart will show altitude changes over time

Two-Line Element Set

1 63198U 25048R 25303.81580084 .00022506 00000-0 82485-3 0 9998
2 63198 43.0027 98.4320 0001255 277.2354 82.8355 15.27580415 37238
Epoch: Oct 30, 2025 • Age: 8 hours

Current Status

Altitude 486.2 km
Velocity 7.63 km/s
Sub-Earth Point 39.51°N, 116.52°E
Launch Date Mar 13, 2025
Age 0.6 years
Type internet

Technical Details

Classification Payload
Mass 730.00 kg
Dry Mass 700.00 kg
Total Mass 730.00 kg
Length 0.30 m
Diameter 4.10 m
Span 29.00 m
Shape Box + pan
Manufacturer SPXS
Bus Type Starlink V2M
Phase Status In Orbit
Owner/State SPXS/US

Large Constellations

Loading constellations...